Location: NJAA Observatory
(40.6819°N, 74.8979°W)
Time: 23:04:17
(UTC-05:00)

Cosmos 2237 Rocket - Visible Passes

Search period start: 20 December 2014 00:00
Search period end: 30 December 2014 00:00
Orbit: 837 x 849 km, 71.0° (Epoch: 19 December)

Date Brightness Start Highest point End Pass type
(mag) Time Alt. Az. Time Alt. Az. Time Alt. Az.
20 Dec 2.4 06:45:02 10° SSW 06:50:39 80° ESE 06:56:17 10° NNE visible
20 Dec 4.3 17:23:52 10° NW 17:28:48 32° WSW 17:33:42 10° SSW visible
21 Dec 2.4 06:30:18 10° SSW 06:35:53 76° ESE 06:41:31 10° NNE visible
21 Dec 4.2 17:09:03 10° NW 17:14:03 34° WSW 17:19:02 10° SSW visible
22 Dec 2.5 06:15:33 10° SSW 06:21:08 73° ESE 06:26:44 10° NNE visible
23 Dec 2.5 06:00:48 10° SSW 06:06:22 69° ESE 06:11:58 10° NNE visible
24 Dec 2.6 05:46:04 10° S 05:51:36 66° ESE 05:57:11 10° NNE visible
25 Dec 2.7 05:31:19 10° S 05:36:51 63° ESE 05:42:24 10° NNE visible
26 Dec 2.7 05:16:35 10° S 05:22:05 60° ESE 05:27:36 10° NNE visible
27 Dec 2.8 05:01:51 10° S 05:07:19 57° ESE 05:12:49 10° NNE visible
27 Dec 3.3 06:47:27 10° WSW 06:51:46 22° NW 06:56:05 10° N visible
28 Dec 2.8 04:47:08 10° S 04:52:34 54° ESE 04:58:01 10° NNE visible
28 Dec 3.2 06:32:34 10° WSW 06:36:57 23° NW 06:41:23 10° N visible
29 Dec 2.9 04:34:01 19° S 04:37:48 51° ESE 04:43:14 10° NNE visible
29 Dec 3.2 06:17:40 10° WSW 06:22:09 24° NW 06:26:40 10° N visible
